Date String (YYYY-MM-DD hh:mm:ss) UTC,Instrument flags,absolute air pressure of the measurement (hPa),sample flow rate (lpm),inlet stack bypass flow (lpm),air temperature of the measurement (°C),ambient temperature measured by the external sensor (°C),aerosol sample conditioner tube jacket temperature (°C),OPC LED temperature (°C),internal box temperature (°C),relative humidity of the measurement (%),span deviation,mass concentration of particles derived from Lorenz-Mie calculation of OPC scattering (μg/m³),mass concentration of particles derived from Lorenz-Mie calculation of OPC scattering (μg/m³),mass concentration of particles derived from Lorenz-Mie calculation of OPC scattering (μg/m³)
DateTimeUTC,F1_M11,P_M11,Q1_M11,Q2_M11,T1_M11,T2_M11,T3_M11,T4_M11,T5_M11,U1_M11,ZSPAN_M11,X2_M11,X0_M11,X1_M11
2024-01-24 00:00:00,SystemResetWarning,0824.9,5.00,000.00,026.3,025.3,000.0,034.5,027.7,14.3,0001.9,0010.55,0017.82,0009.65
2024-01-24 00:01:00,SystemResetWarning,0824.9,5.00,000.00,026.3,025.3,000.0,034.5,027.7,14.3,0001.9,0010.47,0017.27,0009.61
2024-01-24 00:02:00,SystemResetWarning,0824.9,5.00,000.00,026.3,025.3,000.0,034.5,027.7,14.2,0001.9,0010.43,0017.98,0009.59
2024-01-24 00:03:00,SystemResetWarning,0824.9,5.01,000.00,026.3,025.3,000.0,034.5,027.7,14.2,0002.0,0010.41,0017.97,0009.57
2024-01-24 00:04:00,SystemResetWarning,0824.9,5.00,000.00,026.3,025.3,000.0,034.5,027.7,14.2,0002.1,0010.38,0017.91,0009.55
2024-01-24 00:05:00,SystemResetWarning,0824.9,5.00,000.00,026.3,025.3,000.0,034.5,027.7,14.2,0002.3,0010.40,0017.59,0009.55
2024-01-24 00:06:00,SystemResetWarning,0824.9,5.00,000.00,026.3,025.3,000.0,034.5,027.8,14.2,0002.3,0010.36,0017.66,0009.55
2024-01-24 00:07:00,SystemResetWarning,0824.9,5.00,000.00,026.3,025.3,000.0,034.6,027.7,14.2,0002.4,0010.31,0017.12,0009.51
2024-01-24 00:08:00,SystemResetWarning,0824.9,5.00,000.00,026.3,025.3,000.0,034.6,027.7,14.2,0002.7,0010.22,0016.98,0009.45
2024-01-24 00:09:00,SystemResetWarning,0825.0,5.00,000.00,026.3,025.3,000.0,034.6,027.8,14.2,0002.7,0010.15,0016.93,0009.42
2024-01-24 00:10:00,SystemResetWarning,0825.0,5.00,000.00,026.3,025.3,000.0,034.6,027.8,14.2,0002.7,0010.09,0016.79,0009.39
2024-01-24 00:11:00,SystemResetWarning,0825.0,5.00,000.00,026.3,025.3,000.0,034.6,027.7,14.2,0002.8,0010.03,0016.31,0009.34
2024-01-24 00:12:00,SystemResetWarning,0825.0,5.00,000.00,026.3,025.4,000.0,034.6,027.7,14.2,0003.0,0009.99,0015.95,0009.27
2024-01-24 00:13:00,SystemResetWarning,0825.0,5.00,000.00,026.3,025.4,000.0,034.6,027.8,14.2,0003.2,0009.93,0015.20,0009.20
2024-01-24 00:14:00,SystemResetWarning,0825.0,5.01,000.00,026.4,025.4,000.0,034.6,027.8,14.2,0003.4,0009.84,0015.22,0009.10
2024-01-24 00:15:00,SystemResetWarning,0825.1,5.00,000.00,026.4,025.4,000.0,034.6,027.8,14.2,0003.2,0009.73,0015.42,0009.02
2024-01-24 00:16:00,SystemResetWarning,0825.1,5.00,000.00,026.4,025.4,000.0,034.6,027.8,14.2,0003.0,0009.61,0015.03,0008.93
2024-01-24 00:17:00,SystemResetWarning,0825.1,5.00,000.00,026.4,025.4,000.0,034.6,027.8,14.2,0003.1,0009.47,0015.32,0008.82
2024-01-24 00:18:00,SystemResetWarning,0825.1,4.99,000.00,026.4,025.4,000.0,034.6,027.8,14.1,0003.2,0009.41,0015.54,0008.74
2024-01-24 00:19:00,SystemResetWarning,0825.1,5.00,000.00,026.4,025.4,000.0,034.6,027.8,14.1,0003.1,0009.33,0015.15,0008.69
2024-01-24 00:20:00,SystemResetWarning,0825.1,5.00,000.00,026.4,025.4,000.0,034.6,027.8,14.1,0003.0,0009.25,0014.78,0008.61
2024-01-24 00:21:00,SystemResetWarning,0825.1,5.00,000.00,026.4,025.4,000.0,034.6,027.8,14.1,0002.9,0009.15,0014.59,0008.54
2024-01-24 00:22:00,SystemResetWarning,0825.1,5.00,000.00,026.4,025.4,000.0,034.6,027.8,14.1,0002.7,0009.11,0014.52,0008.49
2024-01-24 00:23:00,SystemResetWarning,0825.1,5.00,000.00,026.4,025.4,000.0,034.7,027.8,14.1,0002.9,0009.06,0014.44,0008.43
2024-01-24 00:24:00,SystemResetWarning,0825.1,5.00,000.00,026.4,025.4,000.0,034.7,027.8,14.1,0002.9,0009.02,0014.33,0008.38
2024-01-24 00:25:00,SystemResetWarning,0825.1,5.00,000.00,026.4,025.4,000.0,034.7,027.8,14.1,0002.6,0009.01,0014.50,0008.37
2024-01-24 00:26:00,SystemResetWarning,0825.1,5.00,000.00,026.4,025.4,000.0,034.7,027.8,14.1,0002.8,0009.01,0014.13,0008.35
2024-01-24 00:27:00,SystemResetWarning,0825.1,5.00,000.00,026.4,025.4,000.0,034.7,027.8,14.1,0003.2,0008.98,0014.20,0008.31
2024-01-24 00:28:00,SystemResetWarning,0825.1,5.00,000.00,026.4,025.4,000.0,034.7,027.8,14.1,0003.3,0008.99,0013.84,0008.30
2024-01-24 00:29:00,SystemResetWarning,0825.1,5.01,000.00,026.4,025.4,000.0,034.7,027.8,14.1,0002.9,0008.96,0013.12,0008.29
2024-01-24 00:30:00,SystemResetWarning,0825.1,5.00,000.00,026.4,025.4,000.0,034.7,027.8,14.1,0002.7,0008.95,0013.59,0008.27
2024-01-24 00:31:00,SystemResetWarning,0825.1,5.00,000.00,026.4,025.4,000.0,034.7,027.8,14.1,0002.7,0008.96,0014.00,0008.26
2024-01-24 00:32:00,SystemResetWarning,0825.1,5.00,000.00,026.4,025.4,000.0,034.7,027.8,14.1,0002.8,0009.02,0014.32,0008.25
2024-01-24 00:33:00,SystemResetWarning,0825.1,4.99,000.00,026.4,025.4,000.0,034.7,027.8,14.1,0003.3,0009.02,0015.39,0008.22
2024-01-24 00:34:00,SystemResetWarning,0825.1,5.00,000.00,026.4,025.4,000.0,034.7,027.8,14.1,0003.3,0009.01,0015.58,0008.22
2024-01-24 00:35:00,SystemResetWarning,0825.2,4.99,000.00,026.4,025.4,000.0,034.7,027.8,14.1,0003.3,0009.01,0015.72,0008.21
2024-01-24 00:36:00,SystemResetWarning,0825.2,5.00,000.00,026.4,025.4,000.0,034.7,027.9,14.1,0003.2,0009.01,0015.68,0008.20
2024-01-24 00:37:00,SystemResetWarning,0825.2,4.99,000.00,026.4,025.5,000.0,034.7,027.9,14.1,0003.0,0009.01,0015.31,0008.22
2024-01-24 00:38:00,SystemResetWarning,0825.2,5.01,000.00,026.4,025.5,000.0,034.7,027.9,14.1,0002.8,0009.03,0015.35,0008.23
2024-01-24 00:39:00,SystemResetWarning,0825.2,5.01,000.00,026.4,025.5,000.0,034.7,027.9,14.1,0002.9,0009.01,0015.27,0008.24
2024-01-24 00:40:00,SystemResetWarning,0825.2,5.00,000.00,026.4,025.5,000.0,034.7,027.9,14.1,0002.9,0009.03,0015.55,0008.27
2024-01-24 00:41:00,SystemResetWarning,0825.2,5.00,000.00,026.4,025.5,000.0,034.8,027.8,14.1,0003.0,0009.04,0015.28,0008.29
2024-01-24 00:42:00,SystemResetWarning,0825.2,5.00,000.00,026.4,025.5,000.0,034.8,027.9,14.1,0003.2,0009.05,0014.73,0008.30
2024-01-24 00:43:00,SystemResetWarning,0825.2,5.00,000.00,026.4,025.5,000.0,034.7,027.9,14.2,0003.3,0009.03,0014.77,0008.31
2024-01-24 00:44:00,SystemResetWarning,0825.2,4.99,000.00,026.4,025.5,000.0,034.8,027.9,14.2,0003.2,0009.03,0013.95,0008.32
2024-01-24 00:45:00,SystemResetWarning,0825.3,5.00,000.00,026.4,025.5,000.0,034.8,027.8,14.2,0003.1,0009.05,0014.40,0008.33
2024-01-24 00:46:00,SystemResetWarning,0825.2,4.99,000.00,026.4,025.6,000.0,034.8,027.8,14.2,0003.0,0009.03,0014.91,0008.34
2024-01-24 00:47:00,SystemResetWarning,0825.2,5.00,000.00,026.4,025.6,000.0,034.8,027.8,14.2,0002.9,0009.00,0015.31,0008.34
2024-01-24 00:48:00,SystemResetWarning,0825.3,5.00,000.00,026.4,025.6,000.0,034.8,027.8,14.3,0003.1,0008.97,0015.15,0008.35
2024-01-24 00:49:00,SystemResetWarning,0825.3,5.00,000.00,026.4,025.6,000.0,034.8,027.8,14.3,0003.1,0008.94,0015.22,0008.32
2024-01-24 00:50:00,SystemResetWarning,0825.3,5.00,000.00,026.4,025.6,000.0,034.8,027.8,14.4,0002.6,0008.98,0015.39,0008.31
2024-01-24 00:51:00,SystemResetWarning,0825.3,5.01,000.00,026.4,025.6,000.0,034.8,027.8,14.4,0002.1,0008.96,0015.54,0008.29
2024-01-24 00:52:00,SystemResetWarning,0825.3,5.00,000.00,026.4,025.6,000.0,034.8,027.8,14.4,0002.0,0008.98,0016.88,0008.28
2024-01-24 00:53:00,SystemResetWarning,0825.4,5.01,000.00,026.4,025.6,000.0,034.8,027.8,14.4,0001.8,0009.01,0017.68,0008.27
2024-01-24 00:54:00,SystemResetWarning,0825.4,5.00,000.00,026.4,025.6,000.0,034.8,027.8,14.3,0001.5,0008.99,0017.69,0008.28
2024-01-24 00:55:00,SystemResetWarning,0825.4,5.00,000.00,026.4,025.6,000.0,034.8,027.8,14.3,0001.8,0008.97,0017.52,0008.27
2024-01-24 00:56:00,SystemResetWarning,0825.4,5.00,000.00,026.4,025.6,000.0,034.8,027.8,14.3,0002.0,0008.97,0016.97,0008.27
2024-01-24 00:57:00,SystemResetWarning,0825.3,4.99,000.00,026.4,025.6,000.0,034.8,027.8,14.3,0002.1,0008.92,0016.18,0008.24
2024-01-24 00:58:00,SystemResetWarning,0825.4,5.00,000.00,026.4,025.6,000.0,034.8,027.8,14.3,0002.5,0008.90,0015.41,0008.24
2024-01-24 00:59:00,SystemResetWarning,0825.4,5.00,000.00,026.4,025.6,000.0,034.8,027.8,14.3,0002.7,0008.86,0015.48,0008.23
